Flag for U.S.A. Weather past 2 weeks in Narragansett, Rhode Island, U.S.A.

Now
27 °F

Light snow. Ice fog.


Feels Like: 19 °F
Forecast: 33 / 39 °F
Wind: 8 mph from South

Location: Newport State Airport

Current Time: Mar 3, 2015 at 7:25:58 PM

Latest Report: Mar 3, 2015 at 6:53 PM


Visibility: 1 mi

Pressure: 30.16 "Hg

Humidity: 89%

Dew point: 24 °F

Location of NarragansettLocation

Historic Weather in Narragansett — Graph

°F

Narragansett temperature yesterday

Maximum temperature yesterday: 35 °F (at 11:53 AM)
Minimum temperature yesterday: 25 °F (at 11:53 PM)
Average temperature yesterday: 30 °F

Past Weeks' High & Low Weather Summary

 TemperatureHumidityPressure
High37 °F (Feb 22, 3:53 PM)100% (Feb 22, 1:53 AM)30.75 "Hg (Feb 22, 1:53 AM)
Low1 °F (Feb 21, 4:53 AM)32% (Feb 23, 3:53 PM)29.58 "Hg (Feb 19, 12:53 PM)
Average21 °F65%30.13 "Hg
* Reported Feb 16 5:53 PM — Mar 3 5:53 PM, Narragansett, Weather by CustomWeather, © 2015

Note: Actual official high and low records may vary slightly from our data, if they occured in-between our weather recording intervals... More about our weather records

Advertising

Narragansett weather history for previous 24 hours

 ConditionsComfort  
Time TempWeatherWind HumidityBarometerVisibility
5:53 PM
Tue, Mar 3
27 °FLight snow. Overcast.9 mph75%30.20 "Hg3 mi
4:53 PM27 °FBroken clouds.7 mph69%30.23 "Hg10 mi
3:53 PM27 °FOvercast.12 mph61%30.28 "Hg10 mi
2:53 PM26 °FScattered clouds.10 mph57%30.29 "Hg10 mi
1:53 PM27 °FSunny.8 mph49%30.32 "Hg10 mi
12:53 PM27 °FSunny.9 mph45%30.36 "Hg10 mi
11:53 AM26 °FSunny.3 mph44%30.39 "Hg10 mi
10:53 AM26 °FSunny.6 mph42%30.40 "Hg10 mi
9:53 AM25 °FSunny.7 mph53%30.41 "Hg10 mi
8:53 AM23 °FSunny.7 mph57%30.42 "Hg10 mi
7:53 AM21 °FSunny.5 mph62%30.42 "Hg10 mi
6:53 AM17 °FSunny.No wind68%30.39 "Hg10 mi
5:53 AM18 °FClear.No wind65%30.38 "Hg10 mi
4:53 AM21 °FClear.6 mph60%30.35 "Hg10 mi
3:53 AM21 °FClear.7 mph60%30.33 "Hg10 mi
2:53 AM22 °FClear.7 mph57%30.32 "Hg10 mi
1:53 AM23 °FClear.8 mph55%30.31 "Hg10 mi
12:53 AM24 °FClear.7 mph52%30.29 "Hg10 mi
11:53 PM
Mon, Mar 2
25 °FClear.8 mph53%30.27 "Hg10 mi
10:53 PM26 °FClear.7 mph52%30.24 "Hg10 mi
9:53 PM27 °FClear.10 mph51%30.22 "Hg10 mi
8:53 PM28 °FClear.15 mph49%30.20 "Hg10 mi
7:53 PM29 °FClear.21 mph45%30.17 "Hg10 mi
Weather by CustomWeather, © 2015

See weather overviewHow to use our weather pages